Wind_Speed
6 7 6 5 5 5 5 4 4 4 4 3 2 1 1 1 3 4 5 5 5 6 6 7 9 9 8 8 8 7 7 7 6 6 5 4 3 2 1 1 1 2 3
5 6 5 5 5 5 5 5 5 5 5 4 3 2 2 3 3 2 4 5 5 6 7 9 10 9 8 8 8 7 7 7 5 4 3 3 2 1 1 1 1 2 2
4 5 5 6 6 6 5 5 5 6 5 5 4 3 3 3 2 2 3 4 5 6 8 9 10 9 7 6 7 7 7 6 5 4 3 2 1 1 0 1 2 2 2
4 5 5 6 6 7 6 6 5 5 5 5 4 3 3 3 2 2 3 3 5 6 8 8 8 8 7 7 7 7 7 6 5 4 3 2 0 1 1 1 2 3 2
5 5 6 6 6 7 6 5 5 5 5 4 3 3 2 2 2 3 2 3 5 7 9 8 7 7 8 7 6 6 6 6 4 3 3 2 1 1 1 2 2 3 3
5 5 6 6 7 7 7 6 5 5 5 4 3 2 2 1 1 2 2 3 7 8 8 7 7 7 6 6 6 6 6 5 4 4 3 2 1 0 1 3 2 3 3
6 6 6 7 8 8 7 6 6 5 5 4 3 2 1 1 2 2 3 5 7 8 7 7 7 6 6 5 6 6 6 5 4 3 2 1 0 1 2 3 2 2 2
6 6 6 8 8 8 8 7 6 6 5 4 3 3 2 2 2 2 3 5 7 7 7 7 6 5 5 5 5 6 5 4 4 2 1 0 1 1 1 2 2 2 3
7 6 7 8 8 9 8 8 8 7 6 5 4 4 3 3 3 4 5 6 7 7 6 6 6 4 4 5 5 5 4 3 2 2 1 1 1 1 2 2 2 2 3
7 8 8 8 8 9 9 8 8 7 8 7 6 5 4 4 4 5 7 8 8 7 5 5 5 3 2 3 4 4 3 2 2 2 2 1 0 1 2 2 2 2 3
7 7 8 8 8 9 9 9 9 8 8 8 7 6 5 5 5 6 7 7 7 6 5 4 3 2 2 2 2 2 2 2 1 1 1 1 1 1 2 2 3 3 3
7 7 8 9 10 9 9 9 9 9 8 8 7 7 6 6 6 7 7 6 6 5 4 3 2 2 1 1 2 2 1 1 1 1 1 1 1 1 2 3 3 4 4
6 7 8 9 9 9 10 10 9 9 9 8 7 8 8 7 6 6 6 5 5 4 3 3 2 2 2 2 2 1 1 1 1 1 1 2 2 3 3 4 4 5 6
7 7 7 8 9 8 8 9 9 10 10 9 9 9 9 8 7 6 5 5 5 5 4 3 2 2 2 2 2 1 1 0 1 1 2 3 4 4 4 5 5 6 7
7 7 7 8 8 9 8 9 9 9 10 10 10 10 9 8 8 7 5 4 5 6 5 4 3 3 2 2 1 1 2 2 2 3 3 4 5 5 6 7 6 6 7
7 7 7 7 8 8 8 8 8 8 9 9 9 9 9 8 8 7 6 7 6 7 7 6 4 4 3 2 2 2 2 2 2 3 3 4 5 5 6 6 6 7 8
7 7 7 7 7 8 8 8 8 8 8 9 8 8 8 8 8 8 7 7 6 7 6 6 5 5 4 3 3 3 3 2 2 3 4 4 5 5 6 6 7 7 8
7 7 7 7 7 7 8 8 8 9 9 9 8 8 8 8 7 8 7 6 6 6 5 5 5 5 6 5 5 4 4 3 2 3 4 4 4 5 6 6 7 7 8
6 7 7 8 7 7 7 8 9 9 9 9 9 8 8 8 8 8 7 7 6 6 5 4 5 5 6 6 6 5 5 4 4 4 4 4 4 6 6 6 7 8 8
6 7 7 8 8 8 8 8 8 8 8 8 8 7 7 8 7 7 7 7 7 7 6 5 5 6 6 6 5 5 6 5 5 5 6 6 6 6 6 7 8 8 9
5 6 7 8 8 8 8 7 7 8 8 7 7 7 7 7 7 7 6 6 6 6 7 7 7 7 7 6 6 5 5 5 5 5 6 6 7 7 7 8 8 9 10
5 6 7 8 8 8 8 7 7 8 8 8 8 7 7 7 7 7 7 7 7 6 7 7 7 7 8 7 7 6 6 6 6 6 6 6 7 8 8 9 10 11 11
6 6 6 7 8 8 8 8 8 8 8 8 8 8 7 7 7 6 6 7 7 7 7 8 8 8 8 8 8 7 6 6 7 7 7 7 8 8 9 10 10 11 12
7 7 7 8 8 8 8 9 9 9 9 9 9 9 8 7 7 6 7 7 8 7 8 8 8 8 8 9 8 8 8 8 8 8 8 8 9 9 10 11 12 12 13
9 9 9 9 9 9 9 10 10 10 10 10 10 9 9 8 8 8 8 8 9 9 9 9 9 9 9 9 8 9 8 8 8 9 9 10 10 11 12 12 13 14 15
10 10 10 10 10 11 11 11 11 11 11 11 10 10 10 9 9 9 9 9 10 10 10 10 11 10 10 9 9 10 9 10 10 10 11 12 12 13 13 14 15 16 17
Wind_Direction
44 44 43 42 42 37 33 32 36 31 31 29 39 135 149 138 131 156 164 172 177 173 174 182 176 173 170 175 176 172 177 183 184 186 188 189 201 225 224 283 344 323 321
38 36 34 30 29 26 27 33 37 37 31 37 44 95 118 113 109 142 166 178 177 176 176 175 174 176 180 183 181 182 184 184 182 178 185 193 203 217 260 11 26 343 320
25 27 28 29 24 19 21 30 34 39 38 44 54 86 101 108 105 134 154 170 177 178 174 172 174 176 175 177 183 184 185 190 186 190 191 188 173 182 253 326 349 354 335
17 24 26 27 20 23 22 31 29 32 36 45 55 76 96 110 125 139 135 147 155 157 165 166 168 174 169 171 179 184 185 186 184 189 188 186 165 27 13 6 358 9 351
26 35 30 26 23 26 23 29 31 32 30 33 45 65 89 106 117 131 146 148 155 151 155 157 158 167 174 167 172 183 185 194 181 181 185 185 154 98 43 14 356 12 13
25 40 31 28 25 24 21 28 32 31 29 32 38 58 92 86 120 121 123 130 151 150 150 153 160 166 172 168 166 173 178 179 178 190 204 200 163 127 358 360 4 6 4
34 38 37 33 32 30 30 26 30 30 31 41 49 57 76 72 121 143 129 124 132 145 151 156 156 153 155 154 166 175 171 182 187 203 213 205 231 336 352 2 4 353 345
39 36 36 41 38 33 34 35 29 30 36 48 61 72 75 69 80 119 138 135 137 143 152 157 152 150 148 146 154 165 162 169 200 205 167 145 289 337 1 350 2 356 337
39 39 40 41 39 36 33 31 41 45 48 55 67 76 74 62 70 112 121 125 137 135 142 149 151 160 152 157 161 161 163 163 181 166 150 128 77 42 12 353 351 354 351
39 39 38 38 35 37 38 40 41 48 58 64 71 75 84 69 72 102 116 117 126 127 128 138 147 143 142 155 157 170 144 133 140 166 190 155 82 28 356 347 347 350 352
32 37 39 40 38 41 45 45 44 43 54 61 68 73 81 78 90 98 101 112 113 114 122 128 137 147 140 126 107 97 96 105 119 69 57 24 341 352 3 4 349 337 334
27 32 36 39 39 40 46 48 46 44 49 55 63 61 69 84 92 98 98 96 93 98 105 108 127 142 133 100 82 76 95 99 68 52 29 351 334 342 349 336 329 318 314
26 32 36 38 40 40 42 46 49 44 47 50 52 51 56 68 75 87 95 90 94 101 95 84 89 89 87 75 66 77 100 82 36 23 345 333 329 324 326 319 310 311 311
30 31 37 39 40 40 41 44 43 42 44 49 51 51 53 55 60 64 75 79 76 74 66 66 72 72 77 74 61 57 85 33 349 337 330 317 312 312 313 314 309 308 307
31 32 37 39 41 39 41 44 44 42 42 43 44 44 47 48 45 41 38 52 54 52 49 45 51 48 60 67 56 49 36 28 3 353 330 317 310 308 307 306 302 303 308
31 33 37 40 39 39 40 41 42 41 40 42 41 38 37 38 39 41 38 39 38 34 32 32 30 35 30 37 24 32 34 18 354 337 328 326 324 323 320 316 314 312 310
30 31 32 37 38 37 35 36 36 37 38 36 34 34 32 30 31 30 32 35 31 28 25 26 30 26 24 25 18 10 4 350 335 334 334 329 328 321 322 321 315 313 312
31 29 27 29 32 33 30 30 31 30 31 30 30 33 29 25 23 26 28 28 25 21 20 30 26 21 23 22 20 12 5 351 326 324 330 329 331 327 326 325 322 321 323
30 31 28 26 23 25 25 25 25 27 26 24 25 26 26 25 25 24 21 19 16 8 6 8 12 11 12 10 8 8 4 347 337 321 317 324 330 333 330 330 330 330 332
21 23 23 21 20 19 18 19 19 20 19 19 20 19 16 16 17 15 16 16 13 10 3 357 358 359 1 0 356 352 356 350 341 331 327 322 324 324 325 330 331 331 332
2 7 10 12 11 8 8 11 15 15 11 11 12 10 7 7 7 6 7 7 10 6 1 357 354 354 354 347 343 336 339 344 341 339 334 329 326 323 326 330 330 332 333
344 350 354 355 0 1 359 1 3 6 4 3 2 360 357 354 354 358 7 6 4 0 356 354 354 353 353 352 344 339 341 339 341 335 330 327 325 323 325 327 332 332 333
329 333 339 343 348 349 349 350 349 351 354 358 357 355 352 348 350 352 353 354 352 351 347 347 343 339 339 338 341 341 338 338 335 330 326 326 325 326 326 326 328 331 332
314 316 322 326 332 336 337 339 339 339 341 345 347 349 350 348 343 339 339 338 337 336 334 336 335 332 329 328 329 334 336 336 332 328 324 323 325 324 322 323 323 325 326
302 304 308 312 317 321 323 325 328 331 332 336 337 338 338 335 334 328 324 326 327 326 325 332 330 326 324 323 321 324 326 326 325 323 319 318 318 319 320 319 317 318 318
299 299 299 303 307 309 312 314 317 320 321 322 323 325 325 326 326 325 319 318 320 320 319 322 322 318 315 314 314 313 313 313 315 318 317 314 315 316 317 317 317 316 314
Height
5876 5874 5873 5872 5871 5871 5870 5868 5867 5866 5865 5863 5862 5862 5862 5862 5863 5864 5865 5865 5866 5867 5868 5869 5871 5873 5875 5876 5878 5879 5880 5882 5883 5884 5885 5886 5886 5887 5887 5888 5888 5888 5888
5877 5875 5874 5874 5873 5872 5871 5869 5868 5867 5865 5863 5862 5862 5863 5863 5863 5864 5865 5866 5866 5867 5868 5869 5871 5873 5875 5877 5878 5879 5880 5882 5883 5884 5885 5886 5887 5887 5888 5888 5888 5888 5888
5878 5877 5876 5875 5874 5873 5872 5870 5869 5868 5866 5864 5863 5863 5864 5864 5864 5865 5865 5866 5866 5867 5868 5870 5872 5874 5875 5877 5878 5879 5880 5882 5883 5884 5885 5886 5887 5887 5888 5888 5888 5888 5888
5879 5878 5877 5876 5875 5874 5873 5871 5870 5869 5867 5866 5865 5865 5865 5865 5865 5865 5865 5866 5866 5867 5868 5871 5872 5874 5875 5877 5878 5879 5881 5882 5884 5885 5886 5887 5887 5887 5888 5888 5888 5887 5887
5880 5879 5878 5877 5876 5875 5873 5872 5871 5870 5869 5868 5867 5866 5867 5866 5866 5865 5865 5865 5865 5867 5870 5872 5873 5874 5876 5877 5878 5879 5881 5883 5884 5885 5886 5887 5887 5887 5888 5888 5888 5887 5887
5881 5880 5879 5878 5877 5876 5874 5873 5872 5871 5870 5869 5868 5867 5867 5867 5866 5866 5865 5863 5862 5867 5870 5873 5874 5874 5876 5878 5879 5880 5882 5883 5884 5885 5886 5887 5887 5887 5887 5888 5887 5887 5887
5882 5882 5880 5879 5878 5877 5875 5874 5873 5872 5870 5870 5869 5869 5868 5868 5867 5867 5866 5864 5866 5869 5872 5874 5876 5876 5877 5878 5879 5880 5881 5883 5884 5886 5886 5887 5887 5887 5887 5887 5887 5887 5887
5884 5883 5882 5880 5879 5878 5877 5875 5874 5872 5871 5871 5870 5870 5869 5869 5868 5867 5867 5868 5870 5872 5874 5876 5877 5878 5878 5879 5879 5881 5882 5884 5885 5885 5886 5886 5887 5887 5887 5888 5887 5887 5887
5885 5884 5883 5882 5881 5880 5878 5877 5875 5874 5873 5872 5871 5871 5870 5870 5868 5867 5868 5869 5872 5874 5875 5876 5878 5879 5880 5880 5881 5882 5883 5884 5885 5886 5886 5886 5887 5887 5887 5888 5887 5887 5887
5887 5886 5885 5884 5882 5881 5880 5878 5877 5876 5874 5873 5873 5872 5872 5872 5870 5869 5869 5872 5873 5875 5876 5878 5879 5880 5881 5882 5882 5883 5884 5885 5885 5886 5886 5886 5887 5887 5887 5887 5887 5887 5887
5888 5888 5887 5885 5884 5883 5882 5880 5879 5878 5877 5875 5875 5875 5874 5874 5873 5872 5873 5874 5876 5876 5878 5879 5880 5881 5882 5883 5883 5884 5885 5885 5886 5886 5886 5886 5887 5887 5887 5887 5887 5887 5887
5890 5889 5888 5887 5886 5885 5884 5883 5881 5880 5879 5878 5878 5877 5877 5876 5876 5876 5877 5877 5878 5879 5880 5880 5881 5882 5882 5883 5884 5885 5885 5886 5886 5886 5886 5887 5887 5887 5887 5887 5887 5887 5886
5892 5891 5890 5890 5889 5888 5887 5885 5884 5883 5881 5881 5880 5880 5880 5879 5879 5880 5880 5880 5880 5881 5881 5881 5882 5883 5883 5884 5885 5885 5885 5885 5886 5886 5887 5887 5887 5887 5887 5887 5886 5886 5886
5893 5893 5892 5891 5891 5890 5889 5888 5887 5885 5884 5883 5883 5883 5883 5882 5882 5882 5882 5882 5881 5881 5882 5883 5883 5883 5884 5884 5885 5885 5885 5886 5886 5886 5886 5887 5886 5886 5886 5886 5886 5885 5885
5895 5894 5894 5893 5893 5892 5891 5890 5889 5888 5887 5886 5885 5885 5885 5885 5884 5884 5884 5884 5883 5883 5883 5883 5884 5884 5884 5884 5885 5885 5885 5885 5885 5885 5886 5886 5886 5886 5885 5885 5885 5884 5884
5897 5896 5896 5895 5894 5894 5893 5892 5891 5891 5890 5889 5888 5888 5887 5887 5887 5886 5886 5886 5885 5885 5885 5885 5884 5884 5885 5885 5885 5885 5885 5885 5885 5886 5886 5886 5885 5885 5885 5884 5884 5883 5882
5899 5898 5897 5897 5896 5895 5895 5894 5893 5893 5892 5891 5890 5889 5889 5888 5888 5888 5887 5887 5887 5886 5886 5886 5886 5886 5885 5885 5885 5885 5885 5885 5885 5885 5885 5885 5885 5884 5884 5884 5883 5882 5881
5900 5900 5899 5898 5898 5897 5897 5896 5895 5895 5894 5893 5892 5891 5890 5890 5889 5889 5889 5888 5888 5887 5887 5887 5887 5887 5886 5885 5885 5885 5885 5885 5885 5885 5885 5884 5884 5884 5883 5883 5882 5881 5880
5902 5901 5901 5900 5900 5899 5899 5898 5897 5896 5895 5895 5894 5893 5892 5892 5891 5891 5890 5889 5889 5889 5888 5888 5887 5887 5886 5886 5885 5885 5885 5885 5885 5884 5884 5884 5883 5883 5882 5881 5881 5880 5879
5903 5902 5902 5902 5901 5901 5900 5899 5899 5898 5897 5896 5895 5894 5894 5893 5892 5892 5891 5890 5890 5889 5889 5888 5888 5887 5887 5886 5885 5885 5885 5884 5884 5884 5883 5883 5882 5882 5881 5880 5879 5879 5877
5904 5904 5903 5903 5902 5901 5901 5900 5900 5899 5898 5897 5896 5895 5894 5894 5893 5893 5892 5891 5891 5890 5889 5889 5888 5887 5887 5886 5885 5885 5884 5884 5884 5883 5882 5882 5881 5880 5880 5879 5878 5877 5876
5905 5904 5904 5903 5903 5902 5901 5901 5900 5899 5899 5898 5897 5896 5895 5894 5893 5893 5892 5892 5891 5890 5889 5888 5888 5887 5887 5886 5885 5884 5884 5884 5883 5882 5881 5881 5880 5880 5879 5878 5877 5876 5875
5905 5905 5904 5904 5903 5903 5902 5901 5900 5900 5899 5898 5897 5896 5895 5894 5894 5893 5892 5892 5891 5890 5889 5888 5887 5887 5886 5885 5884 5884 5883 5883 5882 5881 5880 5879 5879 5878 5878 5877 5875 5874 5873
5905 5905 5905 5904 5903 5903 5902 5901 5901 5900 5899 5899 5898 5896 5895 5894 5894 5893 5892 5891 5890 5889 5888 5887 5887 5886 5886 5885 5884 5883 5883 5882 5881 5880 5879 5878 5878 5877 5876 5874 5873 5872 5870
5904 5904 5904 5903 5903 5902 5902 5901 5900 5900 5899 5898 5897 5896 5895 5894 5893 5892 5892 5891 5890 5889 5888 5886 5886 5885 5884 5884 5883 5883 5882 5881 5880 5879 5878 5877 5876 5875 5874 5872 5871 5869 5868
5903 5903 5903 5902 5902 5901 5901 5900 5899 5899 5898 5897 5896 5895 5894 5894 5893 5891 5890 5889 5889 5887 5886 5886 5885 5884 5883 5882 5882 5881 5880 5879 5878 5877 5876 5875 5874 5873 5871 5870 5868 5866 5864